Regional Weather Roundup
Issued by NWS Cleveland, OH

Home | Current Version | Previous Version | Graphics & Text | Print | Product List | Glossary On
Versions: 1 2 3 4 5 6 7 8 9 10 11 12 13 14 15 16 17 18 19 20 21 22 23 24 25 26 27 28 29 30 31 32 33 34 35 36 37 38 39 40 41 42 43 44 45 46 47 48 49 50
000
ASUS41 KCLE 260810
RWRCLE
OHIO REGIONAL WEATHER ROUNDUP
NATIONAL WEATHER SERVICE CLEVELAND, OH
400 AM EDT SUN MAR 26 2017

NOTE: "FAIR" INDICATES FEW OR NO CLOUDS BELOW 12,000 FEET WITH NO
SIGNIFICANT WEATHER AND/OR OBSTRUCTIONS TO VISIBILITY.

OHZ001>008-015>018-024>027-034-035-043-044-260900-
   NORTHWEST OHIO

CITY           SKY/WX    TMP DP  RH WIND       PRES   REMARKS
DEFIANCE       CLOUDY    39  36  89 NE8       30.04F
FINDLAY        CLOUDY    43  37  79 NW8       30.01S
TOLEDO EXPRESS CLOUDY    38  36  92 E9        30.04F
TOLEDO EXEC    CLOUDY    39  37  92 NE8       30.04F
LIMA           MOCLDY    44  41  89 N7        30.00F
$$

OHZ009>014-019>023-028>033-038-089-260900-
   NORTHEAST OHIO

CITY           SKY/WX    TMP DP  RH WIND       PRES   REMARKS
CLE-HOPKINS    CLOUDY    45  38  76 N5        30.06F
CLE-LAKEFRONT  PTCLDY    40  37  89 NE10      30.04F
CUY CO. ARPT   NOT AVBL
LORAIN-ELYRIA  CLOUDY    42  37  82 E3        30.03F
ASHTABULA      CLOUDY    39  37  92 NE5       30.09F
AKRON-CANTON   PTCLDY    56  49  77 E6        30.05F
WOOSTER        CLOUDY    55  50  83 CALM      30.04F
MANSFIELD      CLOUDY    58  51  78 SE9       30.02F
YOUNGSTOWN     CLOUDY    56  49  77 E9        30.09F
$$

OHZ042-051>053-060>062-070>072-077>081-260900-
  SOUTHWEST OHIO

CITY           SKY/WX    TMP DP  RH WIND       PRES   REMARKS
CINC-COVINGTON CLOUDY    60  56  86 SW8       29.99F
CINC-LUNKEN    CLOUDY    59  56  89 S9        30.01S
HAMILTON       CLOUDY    61  57  87 S5        30.00S
DAYTON         CLOUDY    60  50  69 W5        29.99F
WRIGHT-PAT AFB CLOUDY    58  50  73 CALM      29.98F
DAYTON GENERAL CLOUDY    62  50  64 CALM      29.98F
WILMINGTON     CLOUDY    58  49  72 CALM      29.99S
$$

OHZ036-037-039>041-045>050-054>059-063>069-073>076-082>088-260900-
  CENTRAL AND SOUTHEAST OHIO

CITY           SKY/WX    TMP DP  RH WIND       PRES   REMARKS
COLUMBUS       CLOUDY    65  50  58 SE10      29.98F
OSU AIRPORT    CLOUDY    61  50  67 SE7       29.98F
BOLTON FIELD   CLOUDY    57  49  76 SE3       29.99F
RICKENBACK AFB CLOUDY    59  49  69 S6        29.98F
NEWARK         CLOUDY    54  48  80 CALM      29.99F
MARION         MOCLDY    60  50  69 SE7       29.99F
LANCASTER      MOCLDY    61  50  67 SE9       30.00F
ZANESVILLE     CLOUDY    60  48  64 SE6       30.02F
NEW PHILLY     NOT AVBL
$$



USA.gov is the U.S. government's official web portal to all federal, state and local government web resources and services.